Hourly Data Report for October 07, 2014

All times are specified in Local Standard Time (LST). Add 1 hour to adjust for Daylight Saving Time where and when it is observed.

GRISE FIORD CLIMATE
NUNAVUT

76°25'22.040" N
82°54'08.020" W
44.50 m
2402351
71971
NGC

Download Data

Hourly Data (October 2014)
Hourly Data Report for October 7, 2014
Temp Definition
°C
Dew Point Temp Definition
°C
Rel Hum Definition
%
Wind Dir Definition
10's deg

Wind Spd Definition
km/h
Visibility Definition
km
Stn Press Definition
kPa
Hmdx Definition


Wind Chill Definition


Weather Definition


TIME
00:00 -6.4 -8.9 83 3 4   103.04   -8 LegendNANA
01:00 -6.7 -10.6 74 10 10   103.04   -11 LegendNANA
02:00 -6.7 -12.0 66 2 3   103.04   -8 LegendNANA
03:00 -7.5 -12.2 69 4 6   103.06   -11 LegendNANA
04:00 -6.0 -12.3 61 5 9   103.07   -10 LegendNANA
05:00 -6.4 -12.8 60 8 6   103.07   -9 LegendNANA
06:00 -6.8 -12.3 64 4 11   103.08   -12 LegendNANA
07:00 -7.8 -12.5 69 6 4   103.07   -10 LegendNANA
08:00 -7.5 -12.4 68 6 7   103.05   -11 LegendNANA
09:00 -7.6 -11.9 72 4 8   103.04   -12 LegendNANA
10:00 -6.9 -12.6 64 4 10   103.00   -12 LegendNANA
11:00 -5.1 -11.8 59 6 3   102.99   -6 LegendNANA
12:00 -4.7 -12.4 55 5 5   103.01   -7 LegendNANA
13:00 -4.2 -10.7 60 6 3   103.01   -5 LegendNANA
14:00 -4.3 -10.1 64 15 6   102.99   -7 LegendNANA
15:00 -4.8 -11.3 61 9 4   103.01   -7 LegendNANA
16:00 -4.8 -10.7 63 13 4   102.97   -7 LegendNANA
17:00 -6.4 -12.9 60 3 2   103.00   -7 LegendNANA
18:00 -5.8 -11.0 67 13 4   102.99   -8 LegendNANA
19:00 -8.0 -12.2 71 10 6   102.98   -11 LegendNANA
20:00 -6.6 -11.5 68 12 7   102.95   -10 LegendNANA
21:00 -6.8 -13.1 61 3 5   102.92   -9 LegendNANA
22:00 -6.0 -13.0 58 4 7   102.89   -9 LegendNANA
23:00 -6.4 -13.1 59 5 8   102.88   -10 LegendNANA

Notes on Data Quality.

Legend

  • E = Estimated
  • M = Missing
  • NA = Not Available
  • ‡ = Partner data that is not subject to review by the National Climate Archives
Date modified: